Regional Weather Roundup
Issued by NWS Grand Forks, ND

Home | Current Version | Previous Version | Graphics & Text | Print | Product List | Glossary On
Versions: 1 2 3 4 5 6 7 8 9 10 11 12 13 14 15 16 17 18 19 20 21 22 23 24 25 26 27 28 29 30 31 32 33 34 35 36 37 38 39 40 41 42 43 44 45 46 47 48 49 50
000
ASUS43 KFGF 200810
RWRFGF
PRAIRIE TO PINES  WEATHER ROUNDUP
NATIONAL WEATHER SERVICE EASTERN NORTH DAKOTA/GRAND FORKS ND
300 AM CDT MON OCT 20 2014

 **SATELLITE DATA USED TO AUGMENT SKY COVER AT AUTOMATED STATIONS**
 *****  WEATHER ACROSS EASTERN NORTH DAKOTA  *****

CITY           SKY/WX    TMP DP  RH WIND       PRES   REMARKS
GRAND FORKS    CLEAR     38  35  89 W6        29.97R
GRAND FRKS AFB CLEAR     42  38  86 NW7       29.98R
GRAND FRKS NWS   N/A     41 N/A N/A NW5         N/A
DEVILS LAKE    CLEAR     39  32  75 NW6       29.98S
FARGO          CLEAR     41  35  79 W5        29.97R
WAHPETON ARPT  SUNNY     36  32  87 NW6       29.97S
$$

 ***** WEATHER ACROSS CENTRAL AND WESTERN NORTH DAKOTA  *****

CITY           SKY/WX    TMP DP  RH WIND       PRES   REMARKS
BISMARCK       MOCLDY    35  33  92 CALM      30.05R
MINOT          PTCLDY    47  34  60 SW13      30.00R
JAMESTOWN      CLEAR     41  36  82 W3        29.99S
MINOT AFB      CLEAR     39  35  84 W8        29.99R
GARRISON         N/A     37  32  82 CALM      30.02S
WILLISTON      CLEAR     39  33  79 SW5       29.99S
DICKINSON      PTCLDY    41  35  79 S10       30.02S
HETTINGER      PTCLDY    34  29  82 CALM      30.06S
$$

 *****  OTHER AIRPORT OBSERVATIONS IN OUR AREA  *****

CITY           SKY/WX    TMP DP  RH WIND       PRES   REMARKS
WALHALLA       FAIR      43  41  93 NW6       30.00R
GRAFTON AIRPOR FAIR      41  37  87 NW9       29.98R
VALLEY CITY AR FAIR      39  37  93 NW3       30.00R
CANDO          FAIR      36  32  87 NW3       30.01R
CAVALIER APRT  FAIR      45  39  81 N7        29.99R
GWINNER        SUNNY     46  36  66 NW9       30.00S
ROLLA          FAIR      37  34  87 NW6       30.02R
 ***** THE ABOVE OBSERVATIONS ARE NON NWS ARE NOT QUALITY
       CONTROLLED AND MAY MIS-REPORT RAIN FOR SNOW...
$$

  *****  WEATHER ACROSS NORTHERN MINNESOTA  *****

CITY           SKY/WX    TMP DP  RH WIND       PRES   REMARKS
FLAG ISLAND    CLEAR     45  39  81 NW13      29.91R
WARROAD        CLEAR     41  37  87 NW7       29.94R
ROSEAU         CLEAR     39  36  87 NW5       29.95R
HALLOCK        CLEAR     39  36  87 NW6       29.97R
THF RVR FALLS  CLEAR     43  37  81 NW6       29.95R
BAUDETTE       CLEAR     44  41  89 NW9       29.91R
WASKISH        CLEAR     45  43  93 CALM      29.91R
CROOKSTON      CLEAR     39  36  87 NW5       29.97R
STEPHEN NDAWN    N/A     39  36  87 N5          N/A
GREENBUSH NDAW   N/A     37  37 100 NW3         N/A
$$
  *****  WEATHER ACROSS CENTRAL AND WEST MINNESOTA  *****

CITY           SKY/WX    TMP DP  RH WIND       PRES   REMARKS
FOSSTON        CLEAR     39  37  93 NW6       29.95R
BEMIDJI        CLEAR     39  36  90 NW6       29.92R
PARK RAPIDS    CLEAR     40  38  93 NW9       29.91R
ELBOW LAKE     FAIR      40  36  84 NW7       29.96R
WADENA         CLEAR     43  39  87 W6        29.93R
DETROIT LAKES  CLEAR     43  37  81 NW5       29.95S
MOORHEAD       CLEAR     43  39  87 NW3       29.97R
FERGUS FALLS   CLEAR     39  32  75 NW5       29.97S
MORRIS MN      CLEAR     39  36  87 W7        29.95S
STAPLES        CLEAR     43  39  87 W6        29.92R
$$
  *****  WEATHER ELSEWHERE ACROSS MINNESOTA  *****

CITY           SKY/WX    TMP DP  RH WIND       PRES   REMARKS
DULUTH         CLEAR     47  40  76 NW13      29.83R
INTRNTL FALLS  PTCLDY    34  34 100 CALM      29.88R
ELY            CLOUDY    46  39  76 NW5       29.84R
CLOQUET        CLEAR     46  39  76 W8        29.85S
WHEATON        CLEAR     43  36  75 W5        30.00R
BRAINERD       CLEAR     46  41  82 NW3       29.91R
HIBBING        CLEAR     41  37  86 NW6       29.86R
ALEXANDRIA     CLEAR     44  39  82 W6        29.95S
SAINT CLOUD    CLEAR     47  40  76 NW6       29.91S
MINNEAPOLIS    PTCLDY    49  41  74 NW7       29.91R
$$

  *****  WEATHER ACROSS SOUTH DAKOTA  *****

CITY           SKY/WX    TMP DP  RH WIND       PRES   REMARKS
SIOUX FALLS    CLEAR     42  37  82 CALM      30.01R
BROOKINGS      NOT AVBL
WATERTOWN      CLEAR     37  34  89 CALM      30.01R
HURON          CLEAR     37  34  89 W7        30.04R
SISSETON         N/A     46  37  71 NW8       29.98R
ABERDEEN       CLEAR     42  35  76 NW5       30.02R
MITCHELL       CLEAR     46  37  71 NW5       30.04R
PIERRE         CLEAR     44  35  70 CALM      30.05R
MOBRIDGE       CLEAR     38  36  92 CALM      30.03S
RAPID CITY     CLEAR     40  35  83 W3        30.08F
$$

  *****  SOME WEATHER IN NEARBY STATES *****

CITY           SKY/WX    TMP DP  RH WIND       PRES   REMARKS
GLASGOW MT     CLEAR     45  37  73 E16       29.91F
GREAT FALLS MT CLEAR     57  29  34 S14       29.88S
CHEYENNE WY    CLEAR     43  34  70 W6        30.20F
SCOTTSBLUFF NE CLEAR     39  36  89 N6        30.13S
OMAHA NE       CLEAR     51  46  83 CALM      29.98R
DES MOINES IA  CLEAR     52  46  80 NW7       29.94R
DAVENPORT IA   CLEAR     51  43  74 W12       29.86S
CHICAGO IL     PTCLDY    50  43  77 SW10      29.84F
EAU CLAIRE WI  CLEAR     50  41  71 NW9       29.84R
LA CROSSE WI   CLEAR     49  43  80 N8        29.83R
$$

  *****  SOME NATIONAL WEATHER *****

CITY           SKY/WX    TMP DP  RH WIND       PRES   REMARKS
LA GUARDIA NY  MOCLDY    44  29  55 W9        30.08S
RALEIGH NC     PTCLDY    42  39  89 CALM      30.13S
ATLANTA GA     CLEAR     51  46  83 CALM      30.10S
NEW ORLEANS LA CLEAR     61  56  83 CALM      30.04F
OKLAHOMA CITY  PTCLDY    56  52  86 S6        30.04S
ALBUQUERQUE NM PTCLDY    49  39  68 CALM      30.17S
SALT LAKE CITY CLEAR     51  39  63 SE8       30.02F
LOS ANGELES CA CLEAR     66  62  87 W7        29.89S
BOISE ID       CLEAR     58  29  33 S5        29.84S
SEATTLE WA     CLOUDY    60  55  83 SE3       29.72R
$$

*** WEATHER ACROSS MANITOBA...SASKATCHEWAN AND ONTARIO ***
                ***ONTARIO***

CITY           SKY/WX    TMP DP  RH WIND       PRES   REMARKS
GERALDTON      FOG       37  37 100 CALM      29.74S VSB 1/2
THUNDER BAY    CLOUDY    46  43  87 NW3       29.79R
SIOUX LOOKOUT  CLOUDY    43  41  93 N9        29.85R
TORONTO        MOCLDY    43  36  75 SE3       29.94F
BIG TROUT LK   FOG       32  32 100 N9        29.90R VSB 3/4 WCI  24
PICKLE LAKE    NOT AVBL
DRYDEN         CLOUDY    45  41  87 N6        29.86
KENORA         MOCLDY    45  41  87 NW6       29.90R
$$
                *** MANITOBA***

CITY           SKY/WX    TMP DP  RH WIND       PRES   REMARKS
BRANDON        CLEAR     34  30  86 SE2       30.02R
DAUPHIN        CLEAR     32  32 100 SW2       30.01S
ISLAND LAKE    CLOUDY    36  36 100 N6        29.99
PILOT MOUND      N/A     37  36  93 N3          N/A
THE PAS        CLOUDY    41  39  93 SE5       30.00R
THOMPSON       DRIZZLE   36  36 100 W3        30.03R FOG
WINNIPEG       PTCLDY    36  34  93 N8        30.01R
LYNN LAKE      CLOUDY    36  34  93 SE3       29.98S
CHURCHILL      CLOUDY    34  34 100 N7        30.00R
GILLAM         CLOUDY    34  34 100 N6        30.01R
$$
                ***SASKATCHEWAN***

CITY           SKY/WX    TMP DP  RH WIND       PRES   REMARKS
ESTEVAN        CLEAR     39  36  87 SE5       29.98S
KINDERSLEY     PTCLDY    46  37  71 S9        29.76S
LLOYDMINSTER   CLEAR     48  37  66 S10       29.65F
PRINCE ALBERT  CLEAR     37  36  93 E7        29.84F
REGINA         CLEAR     37  36  93 E9        29.93R
YORKTON        CLEAR     39  36  87 SE7       29.96S
N. BATTLEFORD  CLEAR     48  37  66 SE13      29.76S
LA RONGE       PTCLDY    43  41  93 E8        29.85F
SASKATOON      CLEAR     45  39  81 S10       29.82F
SWIFT CURRENT  CLEAR     48  41  76 S16       29.83F
$$
NOTE: THESE ARE AUTOMATED STATIONS WITH LIMITED QUALITY CONTROL
      "FAIR" INDICATES FEW OR NO CLOUDS BELOW 12,000 FEET WITH NO
      SIGNIFICANT WEATHER AND/OR OBSTRUCTIONS TO VISIBILITY.
      SKY/WX - SKY CONDITION AND SIGNIFICANT WEATHER.
      TMP - AIR TEMPERATURE.    DP   - DEWPOINT TEMPERATURE.
      RH  - RELATIVE HUMIDITY.  PRES - PRESSURE.
      HX  - HEAT INDEX.         WCI  - WIND CHILL INDEX.
$


USA.gov is the U.S. government's official web portal to all federal, state and local government web resources and services.